Time,TemperatureF,DewpointF,PressureIn,WindDirection,WindDirectionDegrees,WindSpeedMPH,WindSpeedGustMPH,Humidity,HourlyPrecipIn,Conditions,Clouds,dailyrainin,SoftwareType,DateUTC
2013-11-08 00:01:00,42.1,33.0,30.14,NNE,21,0.0,2.0,69,0.00,,,0.01,weatherlink.com 1.10,2013-11-08 05:01:00,
2013-11-08 00:16:00,41.7,33.0,30.14,NNE,25,0.0,2.0,70,0.00,,,0.01,weatherlink.com 1.10,2013-11-08 05:16:00,
2013-11-08 00:31:00,40.9,33.0,30.15,NE,48,0.0,3.0,72,0.00,,,0.01,weatherlink.com 1.10,2013-11-08 05:31:00,
2013-11-08 00:46:00,40.7,32.0,30.16,NW,312,0.0,3.0,71,0.00,,,0.01,weatherlink.com 1.10,2013-11-08 05:46:00,
2013-11-08 01:01:00,40.4,32.0,30.16,ENE,65,0.0,2.0,71,0.00,,,0.01,weatherlink.com 1.10,2013-11-08 06:01:00,
2013-11-08 01:16:00,39.7,32.0,30.16,NE,38,0.0,2.0,73,0.00,,,0.01,weatherlink.com 1.10,2013-11-08 06:16:00,
2013-11-08 01:31:00,39.4,31.0,30.17,NE,38,0.0,2.0,73,0.00,,,0.01,weatherlink.com 1.10,2013-11-08 06:31:00,
2013-11-08 01:46:00,40.2,31.0,30.17,NE,51,0.0,1.0,71,0.00,,,0.01,weatherlink.com 1.10,2013-11-08 06:46:00,
2013-11-08 02:01:00,40.9,31.0,30.17,NE,39,0.0,1.0,67,0.00,,,0.01,weatherlink.com 1.10,2013-11-08 07:01:00,
2013-11-08 02:16:00,41.3,31.0,30.17,ENE,61,0.0,2.0,66,0.00,,,0.01,weatherlink.com 1.10,2013-11-08 07:16:00,
2013-11-08 02:32:00,41.3,29.0,30.18,ENE,78,2.0,3.0,63,0.00,,,0.01,weatherlink.com 1.10,2013-11-08 07:32:00,
2013-11-08 02:47:00,41.9,29.0,30.18,NE,52,0.0,5.0,60,0.00,,,0.01,weatherlink.com 1.10,2013-11-08 07:47:00,
2013-11-08 03:02:00,42.5,29.0,30.18,East,87,0.0,6.0,59,0.00,,,0.01,weatherlink.com 1.10,2013-11-08 08:02:00,
2013-11-08 03:17:00,42.2,29.0,30.19,NNE,21,1.0,4.0,59,0.00,,,0.01,weatherlink.com 1.10,2013-11-08 08:17:00,
2013-11-08 03:32:00,41.9,28.0,30.18,SSW,210,1.0,5.0,58,0.00,,,0.01,weatherlink.com 1.10,2013-11-08 08:32:00,
2013-11-08 03:47:00,41.8,28.0,30.19,North,359,2.0,6.0,58,0.00,,,0.01,weatherlink.com 1.10,2013-11-08 08:47:00,
2013-11-08 04:02:00,41.8,27.0,30.19,NNE,29,0.0,4.0,57,0.00,,,0.01,weatherlink.com 1.10,2013-11-08 09:02:00,
2013-11-08 04:17:00,41.1,28.0,30.20,NNE,23,0.0,4.0,59,0.00,,,0.01,weatherlink.com 1.10,2013-11-08 09:17:00,
2013-11-08 04:32:00,40.3,27.0,30.20,NNE,23,0.0,1.0,59,0.00,,,0.01,weatherlink.com 1.10,2013-11-08 09:32:00,
2013-11-08 04:47:00,39.4,27.0,30.21,NNE,23,0.0,1.0,62,0.00,,,0.01,weatherlink.com 1.10,2013-11-08 09:47:00,
2013-11-08 05:02:00,37.8,27.0,30.21,NNE,23,0.0,2.0,66,0.00,,,0.00,weatherlink.com 1.10,2013-11-08 10:02:00,
2013-11-08 05:17:00,37.3,26.0,30.22,NNE,23,0.0,1.0,65,0.00,,,0.00,weatherlink.com 1.10,2013-11-08 10:17:00,
2013-11-08 05:32:00,37.7,28.0,30.22,NNW,339,0.0,1.0,68,0.00,,,0.00,weatherlink.com 1.10,2013-11-08 10:32:00,
2013-11-08 05:47:00,37.1,27.0,30.23,NNW,339,0.0,1.0,68,0.00,,,0.00,weatherlink.com 1.10,2013-11-08 10:47:00,
2013-11-08 06:02:00,36.8,27.0,30.24,North,359,0.0,1.0,68,0.00,,,0.00,weatherlink.com 1.10,2013-11-08 11:02:00,
2013-11-08 06:17:00,36.0,27.0,30.24,North,359,0.0,1.0,71,0.00,,,0.00,weatherlink.com 1.10,2013-11-08 11:17:00,
2013-11-08 06:32:00,35.3,27.0,30.25,North,359,0.0,0.0,71,0.00,,,0.00,weatherlink.com 1.10,2013-11-08 11:32:00,
2013-11-08 06:47:00,35.5,28.0,30.25,North,359,0.0,1.0,73,0.00,,,0.00,weatherlink.com 1.10,2013-11-08 11:47:00,
2013-11-08 07:02:00,34.6,28.0,30.26,North,359,0.0,1.0,77,0.00,,,0.00,weatherlink.com 1.10,2013-11-08 12:02:00,
2013-11-08 07:17:00,33.7,28.0,30.27,NE,36,0.0,0.0,79,0.00,,,0.00,weatherlink.com 1.10,2013-11-08 12:17:00,
2013-11-08 07:32:00,33.5,28.0,30.27,NE,34,0.0,0.0,80,0.00,,,0.00,weatherlink.com 1.10,2013-11-08 12:32:00,
2013-11-08 07:47:00,33.8,29.0,30.28,NE,34,0.0,1.0,82,0.00,,,0.00,weatherlink.com 1.10,2013-11-08 12:47:00,
2013-11-08 08:02:00,35.9,30.0,30.29,NE,34,0.0,2.0,78,0.00,,,0.00,weatherlink.com 1.10,2013-11-08 13:02:00,
2013-11-08 08:17:00,38.2,30.0,30.29,NNE,31,0.0,1.0,73,0.00,,,0.00,weatherlink.com 1.10,2013-11-08 13:17:00,
2013-11-08 08:32:00,40.0,32.0,30.30,NNE,31,0.0,0.0,72,0.00,,,0.00,weatherlink.com 1.10,2013-11-08 13:32:00,
2013-11-08 08:47:00,42.4,34.0,30.30,NNE,31,0.0,1.0,72,0.00,,,0.00,weatherlink.com 1.10,2013-11-08 13:47:00,
2013-11-08 09:03:00,43.7,30.0,30.30,NNE,31,1.0,3.0,60,0.00,,,0.00,weatherlink.com 1.10,2013-11-08 14:03:00,
2013-11-08 09:18:00,44.5,30.0,30.31,SW,218,1.0,3.0,57,0.00,,,0.00,weatherlink.com 1.10,2013-11-08 14:18:00,
2013-11-08 09:33:00,45.3,29.0,30.31,WSW,239,3.0,4.0,54,0.00,,,0.00,weatherlink.com 1.10,2013-11-08 14:33:00,
2013-11-08 09:48:00,46.2,29.0,30.31,South,182,1.0,6.0,51,0.00,,,0.00,weatherlink.com 1.10,2013-11-08 14:48:00,
2013-11-08 10:03:00,47.6,29.0,30.31,SW,221,0.0,6.0,48,0.00,,,0.00,weatherlink.com 1.10,2013-11-08 15:03:00,
2013-11-08 10:18:00,48.0,29.0,30.31,West,265,0.0,3.0,48,0.00,,,0.00,weatherlink.com 1.10,2013-11-08 15:18:00,
2013-11-08 10:33:00,49.1,28.0,30.31,ENE,63,2.0,6.0,45,0.00,,,0.00,weatherlink.com 1.10,2013-11-08 15:33:00,
2013-11-08 10:48:00,50.2,28.0,30.31,SSE,158,0.0,4.0,43,0.00,,,0.00,weatherlink.com 1.10,2013-11-08 15:48:00,
2013-11-08 11:03:00,50.4,27.0,30.31,SSW,197,0.0,4.0,41,0.00,,,0.00,weatherlink.com 1.10,2013-11-08 16:03:00,
2013-11-08 11:18:00,51.4,28.0,30.31,SSE,151,2.0,5.0,41,0.00,,,0.00,weatherlink.com 1.10,2013-11-08 16:18:00,
2013-11-08 11:33:00,51.9,27.0,30.30,SW,228,2.0,5.0,38,0.00,,,0.00,weatherlink.com 1.10,2013-11-08 16:33:00,
2013-11-08 11:48:00,53.3,27.0,30.30,East,79,0.0,6.0,36,0.00,,,0.00,weatherlink.com 1.10,2013-11-08 16:48:00,
2013-11-08 12:03:00,54.3,27.0,30.29,North,4,3.0,5.0,35,0.00,,,0.00,weatherlink.com 1.10,2013-11-08 17:03:00,
2013-11-08 12:18:00,55.7,26.0,30.28,SW,216,4.0,4.0,32,0.00,,,0.00,weatherlink.com 1.10,2013-11-08 17:18:00,
2013-11-08 12:33:00,55.0,25.0,30.27,SW,223,4.0,7.0,32,0.00,,,0.00,weatherlink.com 1.10,2013-11-08 17:33:00,
2013-11-08 12:48:00,55.0,24.0,30.26,SSW,193,5.0,8.0,30,0.00,,,0.00,weatherlink.com 1.10,2013-11-08 17:48:00,
2013-11-08 13:03:00,55.6,25.0,30.25,SW,216,5.0,8.0,31,0.00,,,0.00,weatherlink.com 1.10,2013-11-08 18:03:00,
2013-11-08 13:18:00,56.7,25.0,30.25,NW,315,1.0,5.0,30,0.00,,,0.00,weatherlink.com 1.10,2013-11-08 18:18:00,
2013-11-08 13:33:00,56.6,24.0,30.24,WNW,291,1.0,7.0,28,0.00,,,0.00,weatherlink.com 1.10,2013-11-08 18:33:00,
2013-11-08 13:48:00,56.9,24.0,30.24,SSW,206,4.0,6.0,28,0.00,,,0.00,weatherlink.com 1.10,2013-11-08 18:48:00,
2013-11-08 14:18:00,57.9,24.0,30.24,SSE,154,1.0,8.0,27,0.00,,,0.00,weatherlink.com 1.10,2013-11-08 19:18:00,
2013-11-08 14:33:00,58.2,23.0,30.24,SE,139,0.0,7.0,26,0.00,,,0.00,weatherlink.com 1.10,2013-11-08 19:33:00,
2013-11-08 14:48:00,59.2,23.0,30.23,SSE,149,5.0,6.0,25,0.00,,,0.00,weatherlink.com 1.10,2013-11-08 19:48:00,
2013-11-08 15:03:00,59.6,24.0,30.23,ESE,118,3.0,6.0,25,0.00,,,0.00,weatherlink.com 1.10,2013-11-08 20:03:00,
2013-11-08 15:19:00,60.6,22.0,30.23,North,359,0.0,5.0,23,0.00,,,0.00,weatherlink.com 1.10,2013-11-08 20:19:00,
2013-11-08 15:34:00,60.4,22.0,30.23,SSE,154,2.0,6.0,23,0.00,,,0.00,weatherlink.com 1.10,2013-11-08 20:34:00,
2013-11-08 15:49:00,59.6,22.0,30.23,SE,140,1.0,5.0,23,0.00,,,0.00,weatherlink.com 1.10,2013-11-08 20:49:00,
2013-11-08 16:04:00,60.2,22.0,30.23,ESE,118,0.0,2.0,23,0.00,,,0.00,weatherlink.com 1.10,2013-11-08 21:04:00,
2013-11-08 16:19:00,61.0,22.0,30.23,SSE,160,0.0,3.0,22,0.00,,,0.00,weatherlink.com 1.10,2013-11-08 21:19:00,
2013-11-08 16:34:00,60.0,22.0,30.24,NNE,17,0.0,7.0,23,0.00,,,0.00,weatherlink.com 1.10,2013-11-08 21:34:00,
2013-11-08 16:49:00,58.9,22.0,30.24,East,79,0.0,3.0,24,0.00,,,0.00,weatherlink.com 1.10,2013-11-08 21:49:00,
2013-11-08 17:04:00,58.7,23.0,30.24,East,79,0.0,1.0,25,0.00,,,0.00,weatherlink.com 1.10,2013-11-08 22:04:00,
2013-11-08 17:19:00,56.2,23.0,30.24,NNE,32,0.0,5.0,28,0.00,,,0.00,weatherlink.com 1.10,2013-11-08 22:19:00,
2013-11-08 17:34:00,53.9,23.0,30.24,NE,43,0.0,3.0,30,0.00,,,0.00,weatherlink.com 1.10,2013-11-08 22:34:00,
2013-11-08 17:49:00,52.4,25.0,30.25,East,80,0.0,1.0,34,0.00,,,0.00,weatherlink.com 1.10,2013-11-08 22:49:00,
2013-11-08 18:04:00,51.1,23.0,30.25,ENE,75,2.0,2.0,33,0.00,,,0.00,weatherlink.com 1.10,2013-11-08 23:04:00,
2013-11-08 18:19:00,50.3,24.0,30.26,ENE,69,0.0,1.0,36,0.00,,,0.00,weatherlink.com 1.10,2013-11-08 23:19:00,
2013-11-08 18:34:00,49.3,24.0,30.26,ENE,69,1.0,2.0,38,0.00,,,0.00,weatherlink.com 1.10,2013-11-08 23:34:00,
2013-11-08 18:49:00,47.8,24.0,30.27,ENE,69,0.0,1.0,40,0.00,,,0.00,weatherlink.com 1.10,2013-11-08 23:49:00,
2013-11-08 19:04:00,47.8,25.0,30.27,East,79,1.0,3.0,41,0.00,,,0.00,weatherlink.com 1.10,2013-11-09 00:04:00,
2013-11-08 19:19:00,46.7,25.0,30.27,NE,48,0.0,4.0,43,0.00,,,0.00,weatherlink.com 1.10,2013-11-09 00:19:00,
2013-11-08 19:34:00,46.4,25.0,30.27,NNE,25,0.0,1.0,43,0.00,,,0.00,weatherlink.com 1.10,2013-11-09 00:34:00,
2013-11-08 19:49:00,45.4,25.0,30.27,NE,44,1.0,2.0,45,0.00,,,0.00,weatherlink.com 1.10,2013-11-09 00:49:00,
2013-11-08 20:04:00,44.5,25.0,30.28,ENE,64,0.0,2.0,46,0.00,,,0.00,weatherlink.com 1.10,2013-11-09 01:04:00,
2013-11-08 20:19:00,44.7,24.0,30.28,ENE,64,0.0,1.0,45,0.00,,,0.00,weatherlink.com 1.10,2013-11-09 01:19:00,
2013-11-08 20:34:00,44.5,25.0,30.29,ENE,64,1.0,2.0,46,0.00,,,0.00,weatherlink.com 1.10,2013-11-09 01:34:00,
2013-11-08 20:49:00,44.2,25.0,30.30,ENE,64,0.0,0.0,47,0.00,,,0.00,weatherlink.com 1.10,2013-11-09 01:49:00,
2013-11-08 21:04:00,43.2,26.0,30.30,ENE,64,0.0,0.0,51,0.00,,,0.00,weatherlink.com 1.10,2013-11-09 02:04:00,
2013-11-08 21:19:00,42.3,25.0,30.30,ENE,64,0.0,1.0,51,0.00,,,0.00,weatherlink.com 1.10,2013-11-09 02:19:00,
2013-11-08 21:34:00,42.5,26.0,30.31,ENE,64,0.0,0.0,52,0.00,,,0.00,weatherlink.com 1.10,2013-11-09 02:34:00,
2013-11-08 21:49:00,41.8,27.0,30.31,ENE,64,0.0,1.0,57,0.00,,,0.00,weatherlink.com 1.10,2013-11-09 02:49:00,
2013-11-08 22:04:00,41.4,26.0,30.31,ENE,60,3.0,3.0,54,0.00,,,0.00,weatherlink.com 1.10,2013-11-09 03:04:00,
2013-11-08 22:19:00,40.9,26.0,30.31,NNE,20,0.0,4.0,55,0.00,,,0.00,weatherlink.com 1.10,2013-11-09 03:19:00,
2013-11-08 22:34:00,40.4,26.0,30.32,NNE,21,2.0,3.0,57,0.00,,,0.00,weatherlink.com 1.10,2013-11-09 03:34:00,
2013-11-08 22:49:00,39.7,27.0,30.32,NNE,21,2.0,2.0,60,0.00,,,0.00,weatherlink.com 1.10,2013-11-09 03:49:00,
2013-11-08 23:04:00,38.7,26.0,30.32,NE,55,0.0,3.0,60,0.00,,,0.00,weatherlink.com 1.10,2013-11-09 04:04:00,
2013-11-08 23:19:00,38.6,26.0,30.32,NE,55,0.0,2.0,61,0.00,,,0.00,weatherlink.com 1.10,2013-11-09 04:19:00,
2013-11-08 23:34:00,37.7,26.0,30.32,NE,55,0.0,1.0,63,0.00,,,0.00,weatherlink.com 1.10,2013-11-09 04:34:00,
2013-11-08 23:49:00,37.5,28.0,30.32,NE,55,2.0,3.0,68,0.00,,,0.00,weatherlink.com 1.10,2013-11-09 04:49:00,